TimeMDT,TemperatureF,Dew PointF,Humidity,Sea Level PressureIn,VisibilityMPH,Wind Direction,Wind SpeedMPH,Gust SpeedMPH,PrecipitationIn,Events,Conditions,WindDirDegrees,DateUTC
12:56 AM,54.9,43.9,66,30.11,10.0,Calm,Calm,-,N/A,,Clear,0,2013-06-28 06:56:00
1:56 AM,56.8,43.9,62,30.10,10.0,ESE,5.8,-,N/A,,Clear,110,2013-06-28 07:56:00
2:56 AM,52.9,43.9,71,30.10,10.0,Calm,Calm,-,N/A,,Clear,0,2013-06-28 08:56:00
3:56 AM,52.9,43.9,71,30.09,10.0,SE,9.2,-,N/A,,Clear,140,2013-06-28 09:56:00
4:56 AM,52.0,43.9,74,30.10,10.0,North,6.9,-,N/A,,Clear,350,2013-06-28 10:56:00
5:56 AM,50.0,43.0,77,30.13,10.0,East,4.6,-,N/A,,Clear,80,2013-06-28 11:56:00
6:56 AM,56.8,45.9,67,30.12,10.0,Calm,Calm,-,N/A,,Clear,0,2013-06-28 12:56:00
7:56 AM,63.9,47.8,56,30.12,10.0,NW,3.5,-,N/A,,Clear,310,2013-06-28 13:56:00
8:56 AM,68.9,45.9,44,30.14,10.0,Variable,3.5,-,N/A,,Clear,0,2013-06-28 14:56:00
9:56 AM,73.9,45.9,37,30.16,10.0,Variable,4.6,-,N/A,,Clear,0,2013-06-28 15:56:00
10:56 AM,79.9,45.9,30,30.15,10.0,Variable,4.6,-,N/A,,Clear,0,2013-06-28 16:56:00
11:56 AM,81.9,46.9,29,30.14,10.0,Variable,3.5,-,N/A,,Clear,0,2013-06-28 17:56:00
12:56 PM,84.9,43.9,24,30.14,10.0,NNW,8.1,-,N/A,,Clear,340,2013-06-28 18:56:00
1:56 PM,86.9,43.9,22,30.12,10.0,NW,8.1,-,N/A,,Clear,310,2013-06-28 19:56:00
2:56 PM,88.0,38.8,18,30.11,10.0,NNW,8.1,-,N/A,,Clear,340,2013-06-28 20:56:00
3:56 PM,90.9,34.0,13,30.09,10.0,ENE,5.8,-,N/A,,Clear,60,2013-06-28 21:56:00
4:56 PM,88.9,32.0,13,30.08,10.0,North,5.8,-,N/A,,Clear,350,2013-06-28 22:56:00
5:56 PM,88.9,27.1,11,30.07,10.0,NNW,4.6,-,N/A,,Clear,330,2013-06-28 23:56:00
6:56 PM,88.0,24.1,10,30.04,10.0,Calm,Calm,-,N/A,,Clear,0,2013-06-29 00:56:00
7:56 PM,82.9,54.0,37,30.02,10.0,Calm,Calm,-,N/A,,Clear,0,2013-06-29 01:56:00
8:56 PM,77.0,45.0,32,30.03,10.0,SSE,3.5,-,N/A,,Clear,150,2013-06-29 02:56:00
9:56 PM,63.9,38.8,40,30.06,10.0,East,9.2,-,N/A,,Clear,90,2013-06-29 03:56:00
10:56 PM,59.0,37.9,46,30.06,10.0,North,4.6,-,N/A,,Clear,360,2013-06-29 04:56:00
11:56 PM,61.0,41.0,48,30.04,10.0,West,3.5,-,N/A,,Clear,280,2013-06-29 05:56:00